Regional Weather Roundup
Issued by NWS

Home | Current Version | Previous Version | Graphics & Text | Print | Product List | Glossary On
Versions: 1 2 3 4 5 6 7 8 9 10 11 12 13 14 15 16 17 18 19 20 21 22 23 24 25 26 27 28 29 30 31 32 33 34 35 36 37 38 39 40 41 42 43 44 45 46 47 48 49 50
000
ASUS43 KBIS 190002
RWRND

NORTH DAKOTA REGIONAL WEATHER ROUNDUP
NATIONAL WEATHER SERVICE BISMARCK ND
600 PM CST SUN FEB 18 2018

NOTE: "FAIR" INDICATES FEW OR NO CLOUDS BELOW 12,000 FEET WITH NO
SIGNIFICANT WEATHER AND/OR OBSTRUCTIONS TO VISIBILITY.


NDZ001>003-009>011-017-190100-
NORTHWEST NORTH DAKOTA

CITY           SKY/WX    TMP DP  RH WIND       PRES   REMARKS
WILLISTON      MOCLDY     6  -1  73 N8        30.05R WCI  -7
6HR MIN TEMP:   6; 6HR MAX TEMP:  10;

MINOT          CLOUDY     8   0  69 N10       30.01R WCI  -6
MINOT AFB      CLOUDY     8   0  71 N10       30.01R WCI  -7
$$

NDZ018>021-031>035-040>046-190100-
SOUTHWEST NORTH DAKOTA

CITY           SKY/WX    TMP DP  RH WIND       PRES   REMARKS
BISMARCK       CLOUDY    11   4  73 N13       29.98R WCI  -4
6HR MIN TEMP:  11; 6HR MAX TEMP:  14; 6HR PCP: TRACE;

DICKINSON      CLOUDY     6  -1  73 NE14      29.91R WCI -11
GARRISON         N/A      8  -1  66 N9        29.98R WCI  -5
6HR MIN TEMP:   8; 6HR MAX TEMP:  10;

HETTINGER ARPT CLOUDY     6   0  76 N21       29.88R HAZE    WCI -14
$$

NDZ004>008-012>016-024-026-027-054-190100-
NORTHEAST NORTH DAKOTA

CITY           SKY/WX    TMP DP  RH WIND       PRES   REMARKS
GRAND FORKS    CLOUDY    12   7  80 N17       29.96R WCI  -5
GRND FRKS AFB  CLOUDY    10   4  75 N14       29.97R WCI  -5
DEVILS LAKE    FAIR       7   1  76 N13       29.98R WCI  -9
$$

NDZ022-023-025-028>030-036>039-047>053-190100-
SOUTHEAST NORTH DAKOTA

CITY           SKY/WX    TMP DP  RH WIND       PRES   REMARKS
FARGO          CLOUDY    13  10  88 N23G33    29.88R BLWGSNOWWCI  -6
6HR MIN TEMP:  13; 6HR MAX TEMP:  21; 6HR PCP: TRACE;

JAMESTOWN      CLOUDY    10   5  80 N17       29.90R WCI  -8
$$





USA.gov is the U.S. government's official web portal to all federal, state and local government web resources and services.